Lakeland, FL

8:29 PM EST on December 10, 2016 (GMT -0500)
Lakeland Linder Regional

Weather History for KLAL - August, 2013

Change the Weather History Date:

Thursday, August 15, 2013

  Actual Average Record
Temperature  
Mean Temperature 81 °F -  
Max Temperature 91 °F 88 °F 95 °F (2005)
Min Temperature 71 °F 72 °F 71 °F (2004)
Cooling Degree Days 16    
Growing Degree Days 31 (Base 50)    
Moisture  
Dew Point 70 °F    
Average Humidity 78    
Maximum Humidity 94    
Minimum Humidity 49    
Precipitation  
Precipitation 0.00 in - - ()
Sea Level Pressure  
Sea Level Pressure 30.01 in    
Wind  
Wind Speed 3 mph (South)    
Max Wind Speed 12 mph    
Max Gust Speed -    
Visibility 11 miles    
Events Rain    
Averages and records for this station are not official NWS values.
T = Trace of Precipitation, MM = Missing Value Source: NWS Daily Summary

Daily Weather History Graph

Daily Weather History Graph

Search for Another Location

Airport or City:

Trip Planner

Search our weather history database for the weather conditions in past years. The results will help you decide how hot, cold, wet, or windy it might be!

Date:

Astronomy

Aug. 15, 2013 Rise Set
Actual Time 6:58 AM EDT 8:06 PM EDT
Civil Twilight 6:33 AM EDT 8:30 PM EDT
Nautical Twilight 6:04 AM EDT 8:59 PM EDT
Astronomical Twilight 5:34 AM EDT 9:29 PM EDT
Moon 3:13 PM EDT (8/15) 1:13 AM EDT (8/15)
Length of Visible Light 13h 57m
Length of Day
13h 07m
Waxing Gibbous, 64% of the Moon is Illuminated
Aug 15
Waxing Gibbous
Aug 20
Full
Aug 28
Last Quarter
Sep 5
New
Sep 12
First Quarter

Hourly Weather History & Observations

Time (EDT) Temp. Heat Index Dew Point Humidity Pressure Visibility Wind Dir Wind Speed Gust Speed Precip Events Conditions
12:15 AM 77.0 °F - 71.6 °F 83% 30.04 in 10.0 mi SSE 6.9 mph - N/A   Scattered Clouds
12:35 AM 77.0 °F - 71.6 °F 83% 30.04 in 10.0 mi ESE 3.5 mph - N/A   Scattered Clouds
12:55 AM 75.2 °F - 69.8 °F 83% 30.03 in 10.0 mi Calm Calm - N/A   Scattered Clouds
1:15 AM 77.0 °F - 69.8 °F 78% 30.02 in 10.0 mi Calm Calm - N/A   Clear
1:35 AM 75.2 °F - 69.8 °F 83% 30.02 in 10.0 mi Calm Calm - N/A   Clear
1:55 AM 73.4 °F - 68.0 °F 83% 30.02 in 10.0 mi SSE 3.5 mph - N/A   Clear
2:15 AM 73.4 °F - 68.0 °F 83% 30.01 in 10.0 mi Calm Calm - N/A   Clear
2:35 AM 73.4 °F - 68.0 °F 83% 30.00 in 10.0 mi Calm Calm - N/A   Clear
2:55 AM 73.4 °F - 68.0 °F 83% 29.99 in 10.0 mi Calm Calm - N/A   Clear
3:15 AM 73.4 °F - 68.0 °F 83% 30.00 in 10.0 mi Calm Calm - N/A   Clear
3:35 AM 73.4 °F - 68.0 °F 83% 29.99 in 10.0 mi Calm Calm - N/A   Clear
3:55 AM 71.6 °F - 69.8 °F 94% 29.99 in 10.0 mi Calm Calm - N/A   Clear
4:15 AM 71.6 °F - 69.8 °F 94% 29.99 in 10.0 mi South 3.5 mph - N/A   Clear
4:35 AM 71.6 °F - 69.8 °F 94% 29.98 in 10.0 mi South 5.8 mph - N/A   Clear
4:55 AM 73.4 °F - 69.8 °F 88% 29.99 in 10.0 mi Calm Calm - N/A   Clear
5:15 AM 73.4 °F - 69.8 °F 88% 29.98 in 10.0 mi Calm Calm - N/A   Clear
5:35 AM 71.6 °F - 69.8 °F 94% 29.99 in 10.0 mi Calm Calm - N/A   Clear
5:50 AM 73.4 °F - 71.6 °F 94% 30.00 in 10.0 mi South 3.5 mph - N/A   Partly Cloudy
5:55 AM 71.6 °F - 69.8 °F 94% 30.00 in 10.0 mi Calm Calm - N/A   Clear
6:15 AM 71.6 °F - 69.8 °F 94% 30.00 in 10.0 mi Calm Calm - N/A   Clear
6:35 AM 71.6 °F - 69.8 °F 94% 30.00 in 10.0 mi Calm Calm - N/A   Clear
6:50 AM 73.4 °F - 71.6 °F 94% 30.00 in 10.0 mi Calm Calm - N/A   Partly Cloudy
8:50 AM 80.6 °F 84.6 °F 71.6 °F 74% 30.02 in 15.0 mi South 3.5 mph - N/A   Mostly Cloudy
9:50 AM 82.4 °F 87.2 °F 71.6 °F 70% 30.03 in 15.0 mi South 4.6 mph - N/A   Mostly Cloudy
10:50 AM 84.2 °F 88.4 °F 69.8 °F 62% 30.04 in 15.0 mi South 6.9 mph - N/A   Mostly Cloudy
11:50 AM 87.8 °F 93.8 °F 71.6 °F 58% 30.04 in 15.0 mi South 5.8 mph - N/A   Mostly Cloudy
12:55 PM 89.6 °F 94.7 °F 69.8 °F 52% 30.02 in 15.0 mi SE 8.1 mph - N/A   Mostly Cloudy
1:50 PM 89.6 °F 94.7 °F 69.8 °F 52% 30.00 in 15.0 mi SSE 5.8 mph - N/A   Mostly Cloudy
2:50 PM 91.4 °F 96.8 °F 69.8 °F 49% 29.99 in 15.0 mi South 3.5 mph - N/A   Mostly Cloudy
3:50 PM 89.6 °F 94.7 °F 69.8 °F 52% 29.97 in 15.0 mi SSW 11.5 mph - N/A   Mostly Cloudy
4:50 PM 89.6 °F 94.7 °F 69.8 °F 52% 29.96 in 15.0 mi SSW 11.5 mph - N/A   Mostly Cloudy
5:50 PM 87.8 °F 93.8 °F 71.6 °F 58% 29.96 in 15.0 mi SSW 11.5 mph - N/A   Mostly Cloudy
6:50 PM 84.2 °F 88.4 °F 69.8 °F 62% 29.98 in 15.0 mi SW 9.2 mph - N/A   Mostly Cloudy
7:50 PM 82.4 °F 87.2 °F 71.6 °F 70% 30.00 in 10.0 mi SW 5.8 mph - N/A   Mostly Cloudy
8:50 PM 80.6 °F 84.6 °F 71.6 °F 74% 30.03 in 10.0 mi SSW 4.6 mph - N/A   Mostly Cloudy
9:50 PM 80.6 °F 85.4 °F 73.4 °F 79% 30.05 in 10.0 mi SSW 4.6 mph - N/A   Mostly Cloudy
10:55 PM 78.8 °F - 73.4 °F 83% 30.06 in 10.0 mi Calm Calm - N/A Rain Light Rain
11:15 PM 78.8 °F - 73.4 °F 83% 30.06 in 10.0 mi South 3.5 mph - N/A Rain Light Rain
11:35 PM 78.8 °F - 73.4 °F 83% 30.06 in 10.0 mi South 4.6 mph - N/A   Light Drizzle
11:55 PM 77.0 °F - 73.4 °F 89% 30.06 in 10.0 mi South 3.5 mph - N/A Rain Light Rain